Wind_Speed
39 39 45 50 52 53 50 45 40 32 28 27 25 22 23 25 26 27 29 27 24 24 25 26 27 30 31 30 29 25 21 22 23 21 21 23 24 23 23 21 16 14 14 14 14 15 15 17 19 21 21 21 20 18 16 15 15 15 16 15 13 14 13 12 11 12 11 10 11 11 11 10 10 11 12 12 13 13 12 12 11 10 8 6 6 5
38 42 48 49 47 47 48 44 39 37 30 24 22 21 22 26 27 26 26 26 25 24 25 25 28 32 32 31 30 27 24 23 21 18 15 17 21 24 23 19 17 17 16 16 16 17 18 18 22 23 22 21 19 18 17 15 13 13 13 13 15 17 15 12 12 12 11 11 12 11 10 10 11 12 13 13 14 13 12 11 11 10 8 6 5 4
40 46 47 44 43 43 45 44 39 38 34 26 23 21 23 26 27 27 24 23 25 27 26 24 27 32 33 33 31 28 26 23 22 19 14 13 19 23 22 20 19 19 18 18 18 18 20 20 23 24 21 20 19 18 17 15 14 13 12 15 18 18 15 12 13 13 12 12 12 12 11 11 11 12 13 13 13 12 11 12 11 10 9 7 5 4
39 43 44 41 41 40 41 43 39 37 36 31 27 25 24 24 26 29 27 24 25 28 27 25 28 33 34 32 31 28 27 26 24 21 16 14 18 19 19 19 18 19 19 18 19 19 20 23 25 24 21 21 21 19 18 16 15 14 15 18 19 17 15 13 13 13 12 12 12 12 11 12 13 13 13 12 12 12 11 12 11 10 8 7 5 4
35 36 41 40 38 38 38 40 40 38 37 34 32 29 25 23 26 28 25 24 26 27 27 28 25 25 30 30 29 29 28 28 27 22 20 20 19 18 17 17 17 17 18 18 20 21 21 25 25 23 22 21 20 19 18 16 15 16 18 19 18 16 15 14 13 12 11 12 12 12 13 13 14 14 14 13 13 12 12 12 11 10 9 7 5 4
33 31 38 40 38 38 37 39 42 40 36 36 35 32 27 23 24 27 26 25 26 25 28 29 16 13 24 31 30 30 28 27 26 24 25 25 23 21 18 18 19 18 19 20 21 22 23 25 25 23 23 22 20 19 18 17 18 19 19 19 17 16 15 13 12 12 11 11 12 12 12 12 12 13 15 15 14 13 12 11 11 9 8 6 5 4
32 32 36 40 39 37 36 39 43 42 37 37 37 33 29 24 24 27 26 21 18 19 27 32 19 10 20 29 28 29 28 29 29 28 29 27 25 25 22 21 21 20 22 22 22 23 24 25 25 24 23 23 22 21 20 20 20 20 19 18 17 16 14 13 13 12 12 13 14 14 13 12 12 13 15 16 15 13 11 10 9 8 7 6 4 4
33 33 35 39 39 37 38 40 43 43 39 37 37 33 30 28 28 27 24 18 13 15 23 34 32 18 21 30 29 29 31 32 33 32 30 29 27 26 24 22 22 23 24 23 23 24 24 25 24 24 23 22 21 21 20 20 19 19 18 18 17 16 14 14 14 14 13 14 15 15 16 15 15 15 14 15 14 12 10 9 8 7 5 4 4 4
32 32 34 38 41 39 40 40 39 39 39 37 35 32 30 28 28 26 23 21 17 14 17 31 34 17 16 31 32 30 35 35 35 36 33 31 29 27 25 23 25 26 24 23 23 24 24 24 25 24 23 22 21 21 21 20 19 17 17 16 16 16 15 15 15 15 15 15 16 17 17 16 16 16 15 15 14 11 9 8 7 5 4 3 4 5
29 31 31 35 42 42 39 37 35 35 38 38 33 30 29 23 22 21 18 22 21 15 14 28 33 14 8 28 36 32 36 37 36 36 34 32 30 28 25 25 27 27 26 26 25 24 23 23 25 25 24 22 22 22 22 21 19 17 16 16 16 15 15 15 16 15 16 16 18 19 18 17 16 15 15 15 13 10 8 7 5 4 4 4 5 5
27 27 24 30 39 42 36 34 35 32 34 39 35 32 29 22 21 18 17 21 16 11 16 25 36 24 7 24 42 38 33 34 35 35 34 34 31 29 28 28 29 29 29 29 27 25 24 23 25 26 25 25 24 23 22 21 19 18 17 17 16 16 15 16 16 17 17 18 20 20 19 18 16 14 14 13 11 8 7 6 5 4 5 6 5 5
25 25 27 29 32 37 36 33 35 31 32 38 38 36 27 18 18 17 19 20 10 8 17 23 34 30 14 26 43 38 32 32 32 30 30 33 33 30 30 30 30 31 31 31 28 27 26 26 28 28 27 26 24 22 21 20 19 18 18 17 17 16 16 16 16 17 19 20 21 21 20 18 17 16 15 12 9 7 6 6 5 6 6 6 5 4
27 30 30 27 25 33 36 33 34 33 33 35 37 37 21 7 9 9 10 11 6 7 14 16 25 25 18 29 38 34 34 33 28 25 23 26 30 31 32 31 30 32 32 31 30 29 28 29 30 30 29 26 24 22 21 20 19 19 18 18 17 16 16 15 16 18 20 21 21 21 20 18 17 16 14 11 9 8 7 6 6 7 6 5 5 5
25 27 28 29 27 32 38 38 37 38 39 38 38 37 21 5 4 5 4 3 3 9 16 16 18 17 16 25 30 27 26 24 22 24 25 23 25 29 31 31 31 32 32 31 30 30 30 31 31 30 28 25 24 23 21 20 20 19 19 18 16 15 15 15 16 19 21 22 21 20 19 17 16 15 12 10 9 8 7 6 7 7 5 5 6 5
20 20 28 35 31 32 40 41 39 39 41 41 38 35 27 15 6 3 4 4 4 7 15 16 11 10 13 19 25 23 18 21 24 28 30 29 28 29 30 31 32 33 33 31 30 30 31 32 31 29 26 25 24 22 20 19 19 19 18 17 15 14 15 16 19 21 22 22 21 19 18 17 16 13 10 9 8 7 6 6 7 7 6 6 6 5
20 19 29 35 30 30 37 39 38 36 36 38 36 32 31 26 13 5 5 10 10 5 7 11 7 9 16 17 24 26 24 28 29 29 31 31 31 31 31 32 33 34 33 31 29 31 32 31 30 28 26 25 24 21 20 18 18 18 17 16 15 15 15 17 20 22 22 22 20 19 18 17 15 12 9 8 7 6 6 6 7 8 7 6 5 5
18 18 26 32 29 28 32 36 37 34 31 34 36 34 31 27 17 9 6 9 11 5 4 7 7 11 15 13 20 29 32 33 30 28 30 31 32 33 32 33 34 34 33 30 30 30 31 31 28 27 27 25 23 21 19 18 17 17 16 15 16 16 16 18 21 21 21 21 20 19 19 16 12 10 9 7 7 6 6 7 7 8 8 7 6 5
17 16 23 31 30 26 28 34 35 34 31 31 35 35 28 23 19 11 4 3 5 4 4 6 7 10 11 8 14 26 32 35 32 29 29 31 33 33 33 34 34 33 32 29 30 30 30 29 27 26 26 25 23 21 19 17 16 17 17 16 16 17 18 18 20 21 21 21 20 20 17 13 11 11 9 8 7 7 7 7 8 8 7 7 6 6
17 14 20 31 31 26 29 34 33 32 33 29 29 32 27 20 18 12 4 3 5 3 3 3 6 10 12 11 17 26 31 34 32 30 30 31 33 34 34 35 35 34 32 31 31 31 30 28 25 25 26 26 24 22 19 18 17 17 18 18 18 19 19 20 21 22 21 20 21 20 16 12 12 12 10 8 8 9 9 9 8 7 7 7 7 8
12 8 18 30 31 27 31 38 36 32 34 29 22 30 30 19 15 15 10 5 7 5 2 3 3 6 12 13 17 25 29 32 32 30 30 30 32 34 34 35 36 34 32 32 31 30 29 26 23 24 25 26 25 22 20 19 18 18 18 19 20 21 21 22 23 22 21 21 21 19 15 13 13 13 11 10 10 11 11 11 10 9 8 8 8 9
7 7 17 26 29 31 32 38 39 32 34 32 23 27 33 23 14 14 11 7 9 7 3 3 1 3 11 13 14 20 26 29 27 25 27 29 30 32 33 35 35 32 31 31 30 29 28 25 23 24 25 26 25 23 22 21 19 18 18 19 21 21 22 23 23 22 22 21 20 18 16 15 15 14 13 12 13 13 13 13 13 12 11 10 10 10
8 8 21 28 29 33 30 33 37 31 31 35 26 21 28 28 17 8 6 6 9 7 4 6 3 2 7 13 14 18 24 25 21 20 24 27 28 30 33 34 32 29 29 30 29 28 26 25 25 25 26 26 24 23 22 21 20 19 18 20 21 22 23 22 22 21 21 20 19 18 17 17 16 15 14 15 15 15 15 14 14 14 13 12 12 12
7 7 24 32 29 30 27 29 33 28 30 34 26 16 18 28 25 11 5 6 8 5 5 8 6 2 6 14 18 20 20 19 20 23 26 26 27 28 29 31 28 26 27 27 27 27 25 25 26 25 25 25 24 23 23 22 21 19 20 21 22 23 23 22 21 20 19 18 18 17 16 16 15 15 16 16 16 16 16 15 15 15 15 14 14 14
8 11 23 26 23 27 27 27 29 27 30 31 26 18 15 24 28 16 6 8 9 6 5 6 4 4 7 15 26 28 22 19 21 26 27 26 28 29 29 29 28 27 28 27 26 26 25 26 26 26 25 25 24 24 23 23 22 21 22 23 23 23 22 21 19 18 17 17 16 16 16 16 16 16 17 17 17 16 16 15 15 16 16 16 15 15
9 14 23 18 10 16 18 20 24 27 30 29 24 19 17 20 24 19 11 9 6 5 8 7 4 7 9 16 32 37 31 31 33 31 30 28 29 31 31 30 29 28 28 28 27 26 26 26 26 25 24 24 24 24 24 24 23 22 23 23 23 22 21 20 18 17 17 16 16 16 16 16 16 17 18 17 17 17 16 16 16 17 17 16 16 15
5 14 26 17 8 9 8 8 19 27 28 26 19 13 18 22 20 20 18 12 4 3 8 9 8 10 11 16 32 39 36 39 40 37 37 34 31 32 30 28 28 28 27 27 26 25 24 25 24 23 22 22 23 24 24 24 24 23 23 23 22 22 20 19 18 17 17 16 16 16 16 17 17 17 17 17 17 17 16 17 17 17 17 16 15 14
6 15 25 25 22 21 12 5 17 29 25 24 20 9 14 25 20 18 21 16 9 4 4 9 14 15 14 16 28 37 38 39 39 36 35 31 29 29 28 26 26 27 27 26 25 24 24 24 23 22 21 21 22 23 24 25 24 24 23 22 21 21 21 20 18 17 16 16 16 17 17 17 16 16 16 15 15 15 15 16 16 16 16 15 14 14
11 16 20 24 25 24 18 9 14 27 25 25 24 10 10 23 21 16 18 19 16 9 4 9 17 18 19 21 26 33 37 38 38 36 31 26 25 27 28 28 28 29 29 28 27 25 24 24 23 21 21 20 22 23 24 25 24 24 24 23 22 22 21 19 17 16 16 15 16 16 15 15 14 13 13 13 13 13 13 14 14 14 14 14 13 13
11 14 16 19 17 16 20 16 14 22 23 23 24 13 11 19 20 16 16 17 17 12 9 14 20 20 22 24 25 28 30 32 34 33 29 27 27 28 29 30 30 30 30 29 27 26 25 24 23 21 20 20 22 23 23 23 24 24 25 24 23 22 21 19 17 16 15 15 14 14 13 13 12 11 11 12 13 13 13 13 13 13 13 13 13 13
9 11 13 18 16 13 15 17 16 20 21 20 20 15 12 14 17 16 15 14 13 9 10 17 20 19 21 24 26 26 25 28 32 31 29 28 29 29 29 29 29 30 30 28 28 27 26 25 23 21 21 21 22 22 21 23 24 26 26 24 23 23 22 20 18 17 16 16 15 14 13 12 11 11 11 12 13 14 13 12 12 12 12 12 12 12
7 8 11 17 17 11 10 14 16 18 21 20 16 13 12 12 14 16 14 13 11 8 10 19 21 19 20 23 25 25 24 26 28 30 30 28 29 30 29 28 29 29 30 29 29 29 27 24 22 21 21 21 21 20 21 24 26 27 26 25 24 24 23 21 20 18 18 17 15 14 13 12 11 10 10 11 12 13 13 12 12 12 11 11 12 12
6 7 11 15 13 8 7 11 14 16 19 21 18 13 12 12 12 14 15 14 13 10 13 21 22 19 21 22 22 23 23 23 23 26 30 29 30 31 28 27 27 28 30 30 30 29 27 23 20 19 20 20 20 20 22 25 27 28 27 26 25 24 23 23 22 21 20 19 17 15 14 13 11 10 10 10 11 12 12 11 11 11 11 12 12 13
7 7 9 12 8 6 5 8 16 19 14 15 20 19 15 13 11 10 11 12 12 12 15 20 19 18 20 21 21 22 21 20 20 23 27 28 29 31 29 26 26 27 28 28 28 28 26 22 19 17 17 18 20 22 23 25 27 28 27 27 26 25 24 24 23 23 23 22 19 16 15 13 12 10 10 10 11 12 11 11 11 12 12 12 12 12
8 7 8 10 8 7 7 12 18 16 7 8 18 20 18 17 15 11 7 7 9 11 12 13 14 17 20 19 18 18 14 14 18 21 23 25 27 29 30 29 28 27 27 27 27 27 25 22 17 15 15 18 20 21 23 25 28 28 28 29 28 26 25 24 24 24 25 24 21 18 16 14 12 11 10 11 12 12 11 11 12 13 13 12 12 12
7 8 8 10 8 7 9 14 15 8 4 9 14 13 16 19 18 13 9 7 8 9 9 11 12 15 18 16 15 13 10 11 16 19 20 22 23 23 25 27 27 26 26 27 27 25 22 20 17 16 17 20 21 21 23 25 26 27 29 31 30 28 26 26 26 26 25 25 23 19 16 13 12 11 10 11 12 12 11 12 13 13 12 12 12 12
7 8 7 7 6 4 5 8 9 5 7 11 9 6 11 16 18 18 13 9 10 9 8 11 13 13 14 15 16 16 13 14 16 17 16 17 19 20 21 21 22 22 22 22 22 20 18 17 17 17 18 20 21 22 25 27 27 28 30 32 31 29 28 28 27 26 25 25 21 17 14 13 11 10 11 12 12 12 12 12 13 13 12 12 12 12
6 6 6 6 6 5 5 9 10 8 8 8 5 5 8 10 14 20 16 8 9 12 10 11 13 14 14 15 18 17 15 16 18 18 18 17 17 17 17 16 15 16 16 17 19 19 18 17 17 18 19 21 23 24 26 28 30 31 30 30 31 30 30 30 29 27 26 24 19 15 13 12 11 11 12 13 13 12 12 12 13 13 12 12 12 12
5 5 5 5 6 6 8 9 8 4 3 4 4 3 6 7 10 18 17 8 6 12 14 13 14 15 16 18 20 19 18 19 20 19 18 18 17 18 18 16 15 13 13 16 20 22 21 19 19 21 22 21 21 24 26 29 32 31 28 26 27 28 31 32 30 28 26 22 16 13 12 11 11 12 13 14 14 13 13 13 13 13 13 13 13 12
7 4 4 5 6 6 7 6 4 2 1 2 2 1 5 6 6 12 13 8 7 11 15 16 15 16 18 21 23 21 20 19 18 16 16 18 18 19 19 18 17 15 13 15 18 20 21 21 22 24 24 20 19 23 27 29 30 29 26 23 23 24 26 26 24 24 24 21 18 14 12 11 13 15 15 15 15 14 14 13 13 13 13 13 12 11
9 5 4 4 7 5 6 6 4 1 0 1 1 1 3 5 6 8 7 7 11 12 12 16 17 16 19 24 25 25 22 17 14 13 15 16 15 16 18 17 17 16 14 15 17 18 20 23 24 25 25 23 21 24 27 28 28 26 23 20 19 19 18 20 20 20 21 20 19 16 13 14 16 17 17 16 15 14 14 14 14 14 13 13 12 11
9 5 4 1 4 2 4 5 4 1 2 3 2 1 1 3 6 9 7 8 14 15 13 15 16 16 21 26 25 24 21 16 14 15 17 17 14 13 15 17 17 16 14 15 18 19 20 22 23 23 23 23 23 23 25 25 25 23 20 18 17 16 16 18 18 17 17 18 18 16 16 17 18 18 17 16 15 15 15 15 15 14 13 13 12 11
8 5 4 3 1 0 2 3 3 2 2 4 5 5 4 3 4 7 8 11 15 16 15 14 13 15 22 26 24 20 18 16 15 17 18 18 16 14 14 17 19 18 16 17 19 20 19 21 21 21 21 21 23 24 24 22 20 19 19 18 18 18 17 16 14 14 16 18 18 17 18 19 20 19 17 16 16 16 16 16 15 14 14 13 12 11
8 5 4 5 4 2 3 3 2 3 5 6 6 6 5 5 4 4 7 11 14 16 16 14 11 12 17 22 24 22 19 16 15 15 15 17 18 15 13 14 16 17 16 16 17 18 19 21 21 20 20 22 24 25 24 20 18 19 20 19 18 18 18 15 14 14 16 19 20 19 19 20 19 17 16 16 16 17 17 15 14 14 14 14 13 11
7 5 4 6 7 5 4 4 2 4 8 8 7 7 7 7 7 7 8 11 13 15 17 14 12 11 13 17 20 20 18 17 17 17 16 17 18 16 14 13 14 15 15 14 14 15 18 21 20 20 23 26 27 26 24 21 20 21 20 19 19 19 17 16 15 16 17 20 22 21 20 19 18 17 17 17 18 17 16 15 15 15 15 14 13 11
7 8 6 6 9 8 6 4 3 5 9 10 9 9 10 10 11 11 11 11 12 15 17 15 13 12 13 15 17 17 16 16 19 20 18 17 17 17 15 13 13 13 13 13 12 12 15 19 20 21 25 27 26 24 23 22 22 21 20 19 19 18 17 16 16 17 18 21 23 22 21 20 19 19 19 18 18 16 15 16 17 16 15 14 12 10
8 11 9 5 8 10 8 6 4 4 8 11 11 11 12 11 11 11 12 13 14 16 18 18 16 13 13 14 16 16 16 15 17 20 19 19 19 18 16 13 12 12 12 12 11 11 11 15 19 22 25 25 24 23 23 22 21 20 19 19 19 19 18 17 17 17 19 22 23 22 21 21 20 20 20 19 18 17 17 18 18 16 15 13 11 9
8 10 9 6 6 8 8 7 7 6 8 11 13 12 11 10 11 12 12 13 15 16 17 19 18 16 15 14 13 13 14 16 17 19 19 19 19 17 16 14 13 13 12 13 13 13 12 13 16 21 25 26 26 26 25 23 21 21 20 21 21 20 18 17 18 19 20 22 23 23 22 21 20 20 19 19 18 19 19 19 19 17 14 12 10 8
10 9 9 7 6 6 6 5 6 7 7 10 13 12 10 11 11 11 12 13 15 16 17 18 18 17 15 13 11 9 12 15 16 17 18 18 18 17 17 16 15 14 13 13 14 16 16 16 17 20 24 27 28 28 27 24 22 22 22 23 22 20 18 18 18 19 22 24 24 23 21 21 20 20 19 19 19 19 19 19 18 17 14 12 10 10
13 10 10 8 6 7 7 5 6 7 6 7 10 11 11 11 10 10 10 12 14 16 17 17 17 16 14 12 10 9 10 12 14 16 17 18 18 18 17 17 17 17 16 15 15 16 18 19 18 20 23 26 28 28 26 24 23 24 24 23 22 20 18 18 20 22 25 26 24 23 22 21 21 20 19 18 18 19 19 19 18 16 15 13 12 11
15 13 11 9 7 8 8 8 9 10 8 7 8 10 11 12 12 12 12 12 14 16 16 16 16 15 13 11 9 9 10 11 13 15 17 18 18 18 18 19 19 18 17 16 16 17 19 20 20 21 22 23 26 26 26 25 25 25 25 24 22 20 19 20 23 26 27 26 24 23 22 22 21 20 19 18 18 19 20 20 19 17 16 14 13 12
16 15 12 10 9 10 11 11 11 12 10 8 7 9 11 12 14 15 15 15 16 16 15 15 15 14 13 11 10 10 11 12 13 14 17 19 20 20 20 19 19 18 18 18 18 19 20 21 21 22 22 24 26 26 26 26 25 26 27 25 22 20 20 21 25 26 26 25 24 23 22 21 20 19 19 19 19 20 19 19 18 17 16 14 13 13
Wind_Direction
192 195 199 200 201 200 198 201 207 204 198 204 207 210 216 215 213 212 214 209 200 208 218 222 225 228 231 235 240 237 225 226 232 234 239 240 240 235 220 216 228 239 241 242 233 214 202 194 184 180 180 183 187 179 174 177 178 179 175 175 196 217 224 219 218 221 220 216 214 218 217 213 210 204 203 202 198 193 184 181 179 177 179 187 200 205
195 201 203 202 200 200 200 202 206 203 199 202 206 213 221 219 213 205 209 211 203 209 219 222 225 226 228 233 236 231 222 224 229 227 228 235 236 228 219 222 232 234 232 232 224 208 199 192 183 182 184 186 185 180 178 179 178 175 174 186 206 215 215 212 212 215 212 206 206 211 212 212 213 207 204 201 197 191 184 179 176 179 181 181 191 199
200 207 205 200 200 200 201 204 205 203 202 201 200 213 222 217 212 204 203 206 207 216 222 225 229 227 226 230 232 230 225 226 232 235 236 241 235 224 220 228 232 232 232 230 222 206 197 192 184 184 186 183 181 185 186 185 185 186 192 203 208 210 211 209 210 211 207 204 207 211 210 208 212 211 203 194 187 184 180 175 175 182 183 183 196 210
203 209 203 198 199 200 202 205 204 203 206 204 203 215 218 208 208 208 202 197 203 215 222 228 232 226 221 223 224 223 222 227 233 234 232 235 233 227 229 234 237 239 237 229 218 207 199 192 185 184 185 181 181 186 189 188 190 196 203 205 204 206 208 207 209 210 205 203 207 212 208 204 206 206 199 187 176 174 174 173 176 184 187 193 208 219
203 208 201 196 198 199 202 206 204 204 207 205 206 216 213 201 206 211 203 196 204 216 226 229 221 209 208 210 212 211 213 223 229 226 216 215 218 222 228 229 232 236 232 225 216 207 199 192 186 185 185 185 186 189 190 192 198 205 205 201 200 202 203 205 207 205 202 202 205 208 206 201 200 198 191 180 171 167 169 173 180 187 194 201 209 222
204 206 200 195 196 198 202 206 203 202 207 207 207 212 210 199 202 208 205 205 214 221 226 226 206 176 197 204 207 209 210 215 220 220 213 210 211 213 217 219 220 219 216 217 217 208 199 194 191 192 192 192 193 193 195 201 206 206 204 202 201 198 198 200 202 200 197 195 195 198 201 200 199 195 184 174 170 170 172 177 183 188 194 201 209 229
204 203 201 196 195 198 201 206 204 200 206 211 207 204 203 201 201 207 212 216 224 226 226 226 217 170 189 203 208 210 209 208 210 215 213 211 212 212 217 219 216 210 206 207 209 205 200 197 195 196 197 195 195 194 197 203 204 204 206 207 203 199 196 197 200 201 196 192 188 187 191 192 190 188 181 176 176 177 180 183 188 191 196 205 218 241
202 199 202 198 195 198 201 205 204 200 206 211 202 196 200 205 204 209 221 226 231 238 234 226 217 192 183 197 203 205 206 205 206 210 211 211 212 215 218 216 209 205 202 201 202 201 200 198 196 197 197 195 192 191 195 200 202 206 212 211 208 207 202 199 200 199 196 193 190 190 191 186 182 182 182 182 181 180 188 194 197 200 204 218 243 265
196 197 202 199 197 200 202 204 202 202 210 207 195 196 206 212 215 224 237 238 241 251 233 212 205 193 181 191 194 201 205 203 204 209 211 210 212 214 214 206 202 202 202 203 202 200 198 194 193 195 195 193 191 192 195 198 202 208 212 210 210 209 204 202 200 197 196 192 190 193 192 184 182 181 180 182 183 184 195 203 207 213 221 243 265 275
195 197 201 201 200 202 202 202 201 204 209 201 192 201 212 220 229 235 246 246 247 253 231 207 197 184 167 186 188 196 203 203 206 210 212 212 211 211 207 200 201 203 203 204 203 201 199 193 192 194 193 193 195 195 193 196 201 206 208 208 210 209 206 204 199 196 195 191 189 189 186 181 183 183 180 183 188 193 199 206 213 223 234 248 260 272
200 196 201 207 205 202 201 201 199 203 207 200 199 210 220 230 236 238 246 248 249 242 243 226 203 192 175 185 189 194 201 202 203 206 211 212 210 207 203 200 203 205 204 202 201 200 199 195 193 192 192 196 199 197 193 196 202 205 207 209 211 211 208 202 197 195 193 190 187 184 180 180 184 187 187 189 196 202 206 212 218 223 234 248 260 275
199 197 205 211 208 202 200 202 198 196 202 203 207 216 226 236 237 246 247 240 239 226 246 237 204 197 196 190 194 199 202 200 200 205 209 211 211 207 203 203 204 204 203 201 198 197 197 195 192 191 194 199 200 197 196 200 205 207 208 211 212 210 206 201 198 195 192 189 186 182 181 183 187 191 192 193 199 205 212 218 221 224 236 255 267 272
199 201 205 208 209 203 199 201 199 196 199 203 210 215 220 220 215 236 240 225 218 220 240 228 197 201 212 204 203 203 201 202 206 212 216 215 214 211 206 205 204 202 201 200 198 197 197 196 194 195 197 199 199 199 198 202 206 207 209 212 213 210 208 205 199 194 189 186 184 183 185 187 188 189 191 196 202 206 212 218 225 231 242 261 267 263
201 205 207 206 209 206 200 199 197 198 200 202 208 210 204 165 173 214 220 211 207 217 231 222 196 200 211 210 211 205 203 213 216 215 221 224 220 215 210 205 202 201 199 199 199 197 197 198 198 200 200 199 198 198 198 201 204 207 209 212 214 211 208 202 194 189 186 183 182 184 188 189 187 187 193 202 206 210 215 220 229 236 242 253 256 258
197 204 205 203 206 205 203 201 197 197 200 203 208 209 205 196 182 191 194 187 183 204 220 216 198 187 188 203 213 213 218 223 216 213 218 220 218 214 210 204 201 200 198 198 198 196 197 198 200 203 204 201 198 198 199 201 202 205 207 211 212 208 200 195 191 188 186 184 184 185 188 188 188 192 199 206 212 218 224 229 234 239 243 248 254 263
201 210 201 198 207 207 201 201 198 197 202 205 206 211 211 206 205 216 194 184 185 190 210 199 178 173 180 192 205 208 214 212 210 214 216 215 215 212 208 204 201 198 198 196 194 195 197 199 203 206 206 202 199 200 201 200 201 205 206 207 205 199 194 193 192 189 188 188 186 186 189 190 194 199 203 210 220 227 234 242 243 244 244 250 261 274
197 211 200 195 205 209 200 196 197 199 202 202 205 212 211 203 210 224 191 174 174 173 209 185 148 160 170 178 196 202 207 207 208 211 212 213 213 210 207 204 200 198 197 195 193 196 198 201 205 206 204 202 199 202 202 199 201 204 205 204 200 195 191 192 193 192 191 191 189 188 191 196 202 206 210 219 230 237 245 253 252 249 249 254 271 283
190 203 199 194 200 205 197 192 198 205 204 202 207 212 207 202 219 229 188 149 145 154 225 185 153 169 166 156 189 199 202 203 204 204 207 211 212 210 207 204 201 198 197 195 195 198 200 202 204 201 199 199 199 203 203 199 200 200 200 200 198 194 191 190 193 193 194 195 193 192 196 205 212 215 223 229 239 250 255 259 260 260 263 269 279 286
191 200 193 193 196 196 190 191 199 206 209 211 211 209 204 203 219 226 210 173 151 155 257 187 157 183 183 173 185 193 196 197 198 198 201 207 210 211 208 204 201 198 197 198 198 200 201 201 202 199 197 197 199 202 203 199 199 198 197 195 194 193 190 188 191 194 197 197 196 198 206 218 223 225 233 237 246 254 255 261 266 272 282 286 286 286
194 206 182 190 197 190 187 194 199 200 203 211 213 210 211 208 209 217 219 196 167 165 241 208 162 191 200 196 189 190 192 189 189 192 196 201 208 211 209 206 203 200 199 201 201 202 202 202 204 200 198 198 198 200 202 200 201 200 198 197 193 192 190 188 190 194 198 199 200 207 219 230 232 234 239 244 250 253 255 261 267 276 287 291 291 288
228 225 177 184 194 190 189 197 200 198 197 201 203 206 209 206 203 213 217 200 178 168 154 178 241 214 201 206 202 193 185 178 179 187 193 199 207 211 211 210 207 203 201 202 204 205 204 203 204 202 200 200 198 199 201 202 204 202 200 199 194 192 192 191 193 196 199 203 208 219 230 236 238 240 245 249 252 255 259 263 268 275 283 289 291 288
237 225 177 175 184 187 189 195 199 201 199 200 201 203 204 205 202 197 203 199 178 170 168 179 215 269 194 203 211 197 183 178 183 186 185 191 199 205 210 212 210 205 203 204 207 208 207 207 209 207 205 203 200 199 200 203 205 203 201 200 196 195 196 196 198 201 205 211 218 227 233 238 242 245 248 251 253 258 262 266 270 273 278 284 286 283
241 231 178 176 185 184 181 191 198 200 199 200 203 201 202 207 207 196 178 181 164 164 191 186 198 258 197 199 201 195 194 199 196 186 180 181 188 195 202 206 207 205 205 207 209 210 211 214 216 214 211 208 202 199 202 205 206 204 202 202 200 200 201 201 204 207 211 217 223 228 233 238 242 246 248 251 254 259 263 267 270 272 275 278 278 277
239 230 176 169 184 186 183 194 200 197 195 199 203 205 205 205 207 206 181 169 173 180 178 166 195 231 196 195 195 192 198 204 192 183 182 183 185 189 195 199 198 199 203 207 209 210 212 216 219 218 217 213 205 202 204 206 207 206 203 203 204 204 205 206 209 213 216 221 225 229 234 238 241 244 247 250 254 258 262 266 269 270 271 272 271 272
233 210 173 151 157 185 191 203 206 201 198 199 201 212 222 211 206 211 201 177 184 206 187 167 195 218 194 189 191 190 192 192 187 187 190 191 190 188 192 196 196 196 200 204 206 208 211 214 217 219 220 216 208 205 206 206 208 209 205 205 206 206 207 209 211 216 219 223 227 230 234 236 238 240 243 248 252 256 261 264 266 267 267 268 268 270
234 190 179 168 155 177 186 208 209 202 199 201 202 218 227 217 212 215 207 191 179 212 200 191 196 200 189 185 190 193 193 188 187 191 197 200 198 192 193 197 198 199 202 205 209 211 214 216 216 216 218 216 210 208 207 207 209 210 208 208 208 208 209 210 211 215 218 222 226 229 232 233 235 239 243 248 252 255 258 260 261 264 265 267 268 268
194 185 189 192 191 190 185 181 204 202 197 200 206 220 217 211 216 220 211 206 203 205 228 211 201 189 174 179 192 195 192 188 187 192 198 204 205 200 200 202 201 204 206 209 213 215 218 220 217 214 215 216 214 211 209 208 210 211 211 211 210 209 210 211 211 214 218 222 226 229 232 235 238 241 243 246 248 250 253 255 258 261 263 265 267 267
180 183 187 191 192 194 193 174 192 201 200 203 208 210 197 203 214 219 214 213 210 216 248 199 194 190 175 176 190 191 190 192 192 191 193 200 206 206 207 207 206 207 209 211 214 217 220 222 220 216 214 216 217 215 211 209 210 213 214 212 210 211 214 214 213 216 221 225 228 230 232 234 238 241 242 244 247 250 253 255 258 260 261 264 266 266
178 179 180 185 181 186 195 190 189 196 196 202 208 198 174 194 208 214 219 220 215 225 229 188 185 192 181 174 182 187 191 195 193 190 191 195 201 207 210 210 211 211 211 213 215 217 220 222 223 222 217 216 219 217 213 210 211 215 216 213 212 213 216 217 217 220 224 227 229 230 231 233 236 240 244 247 249 251 253 254 255 256 258 260 262 263
168 171 178 187 175 162 182 191 197 199 196 200 206 192 172 188 203 205 209 213 209 221 216 191 186 190 182 178 184 189 192 192 190 190 192 195 201 207 210 214 217 217 217 218 218 220 222 223 224 225 221 219 219 217 213 211 213 219 220 216 215 217 219 219 219 222 225 228 229 230 231 234 238 242 246 249 251 251 249 248 247 249 253 255 258 259
171 159 171 187 184 174 183 187 192 204 208 207 203 189 184 198 209 209 207 204 209 225 208 192 190 185 177 177 182 185 185 186 190 193 194 197 203 206 211 218 223 224 224 224 223 224 225 227 228 227 223 220 219 215 212 212 215 221 223 219 218 221 222 221 221 222 226 229 229 230 235 240 244 249 252 254 255 252 246 242 241 244 248 251 253 254
178 146 163 182 183 178 182 181 186 201 211 213 209 202 203 213 217 219 221 221 229 237 203 188 188 181 167 163 167 172 177 183 191 196 198 200 205 208 214 221 223 225 228 228 227 227 229 234 237 232 224 219 217 214 213 214 217 221 223 221 220 223 224 223 223 225 227 228 227 229 238 246 251 255 257 258 256 249 241 237 237 241 243 245 246 246
176 147 156 172 162 135 157 196 203 203 206 214 214 215 221 223 209 202 218 226 228 225 200 190 195 189 172 165 166 169 176 187 196 201 203 203 205 209 216 221 224 227 229 231 232 231 233 238 241 235 225 219 217 215 213 216 218 221 222 223 223 225 225 225 227 229 229 226 226 230 239 247 255 259 261 259 253 243 234 228 230 237 238 239 241 240
161 143 142 153 134 118 153 179 187 189 184 198 208 215 225 226 211 198 210 214 209 213 204 197 206 199 184 177 177 178 180 192 202 209 211 212 213 213 215 220 226 229 231 233 232 231 233 234 233 229 221 219 219 216 214 218 221 221 221 222 225 227 227 228 231 233 232 229 228 232 240 248 256 260 258 253 244 233 223 221 227 234 236 235 233 231
150 140 132 135 118 115 148 154 159 168 144 160 184 204 220 227 223 213 207 187 185 202 198 189 197 199 193 187 186 190 184 182 199 214 219 219 221 222 222 224 227 230 233 233 230 230 232 231 229 227 221 217 218 217 217 220 223 222 219 221 226 228 227 229 230 231 232 231 229 232 239 246 254 256 249 239 230 224 218 220 227 231 231 230 226 220
152 140 126 120 110 126 149 133 135 144 130 136 145 168 196 216 225 219 206 181 184 200 196 191 193 194 198 200 197 194 184 176 191 209 217 218 219 221 226 229 230 234 239 237 234 234 233 229 230 231 225 221 223 226 225 222 221 221 220 221 227 228 225 227 230 229 229 228 226 227 235 243 247 244 235 226 220 220 219 220 226 228 224 220 216 210
163 134 117 99 91 121 127 106 111 125 129 133 138 158 175 192 212 215 207 185 195 208 206 208 209 203 199 198 195 191 184 181 191 201 208 213 216 218 223 225 227 232 235 235 235 235 231 227 228 227 227 229 231 232 229 222 218 220 220 222 228 231 229 227 226 226 225 221 218 221 227 234 235 228 222 218 215 217 220 221 224 224 217 210 206 206
170 117 97 80 78 109 115 100 103 115 134 144 135 161 192 185 193 205 205 195 206 215 215 219 221 215 202 187 186 191 192 192 197 204 210 215 215 216 219 217 212 212 218 224 228 226 222 217 215 217 222 228 229 224 218 212 213 217 219 222 229 236 237 234 230 231 229 217 208 216 221 221 224 219 214 212 212 216 221 221 220 216 208 202 202 208
170 123 96 72 70 100 104 88 94 114 147 174 137 186 223 219 205 203 206 215 223 220 222 222 221 222 211 192 185 190 194 196 199 206 219 226 225 222 223 219 209 203 209 217 220 218 212 205 203 209 215 219 219 213 206 205 211 216 219 224 229 235 243 248 249 249 240 216 198 203 212 212 216 214 209 209 212 216 218 217 213 207 202 201 205 211
175 158 152 70 49 78 97 80 80 103 206 274 315 133 222 247 232 203 198 224 225 221 226 224 221 223 215 201 195 198 205 212 214 215 226 235 238 238 234 226 217 216 223 224 217 212 207 202 200 204 210 215 214 209 206 209 215 219 219 223 227 230 242 255 259 258 247 220 194 188 199 208 210 207 205 208 211 213 212 207 202 200 202 206 212 213
179 177 192 353 20 65 107 87 76 100 227 256 280 283 291 278 231 204 195 216 222 224 228 226 223 218 211 208 209 214 224 238 240 237 238 240 245 248 238 227 220 219 225 226 219 212 208 207 204 203 209 215 216 215 213 211 213 218 219 220 224 229 238 249 250 245 236 220 199 187 193 202 203 202 204 207 207 206 203 198 195 199 206 211 213 212
184 203 242 263 278 111 117 109 92 111 197 233 250 256 268 269 224 208 211 220 224 227 228 227 222 211 207 211 218 226 238 247 243 241 241 239 242 249 244 235 228 222 220 222 221 216 210 208 206 203 206 214 219 220 216 210 210 217 220 219 221 226 231 237 238 226 216 211 204 195 195 199 200 201 203 204 202 200 196 195 198 204 210 211 209 208
191 210 223 208 196 169 136 135 112 136 177 205 228 238 249 253 246 239 233 229 228 228 230 234 232 214 207 211 217 226 237 241 241 244 245 240 240 244 246 241 233 227 226 226 226 224 217 211 208 204 207 218 223 218 212 211 215 219 217 215 216 220 222 224 225 220 210 206 205 202 199 198 198 199 201 201 199 196 194 200 210 213 210 207 206 206
194 210 196 190 196 196 181 180 193 189 186 193 212 226 235 246 253 255 244 232 229 229 232 236 238 230 218 213 216 222 226 226 229 236 241 240 238 238 238 236 235 234 232 226 227 228 222 218 215 207 209 221 225 217 210 213 219 218 215 214 215 216 216 217 220 219 212 207 206 205 200 196 195 197 199 199 197 196 200 210 214 212 207 203 202 204
190 204 204 201 202 206 209 205 206 199 194 194 204 219 231 242 250 252 245 234 230 231 233 236 237 234 231 227 223 221 218 217 221 226 231 235 236 236 236 236 237 237 232 225 224 223 221 223 221 211 209 214 216 211 209 211 213 213 212 213 214 212 211 216 223 222 216 211 208 204 198 194 194 196 197 197 199 204 212 215 210 205 202 200 199 202
182 191 201 214 203 201 207 205 197 202 210 211 210 213 223 234 244 251 250 241 236 235 235 237 239 238 236 237 235 229 222 219 221 221 221 225 229 231 233 233 231 230 229 229 229 227 229 231 227 218 212 208 205 208 212 211 208 208 208 209 210 210 211 218 226 225 218 212 208 202 197 196 196 196 196 199 205 209 211 208 202 199 198 197 198 204
182 182 189 200 193 191 197 205 209 217 228 229 223 217 221 232 240 246 248 243 240 241 239 238 240 242 241 241 243 234 221 218 223 223 218 218 223 228 235 242 244 242 242 242 243 247 255 255 245 232 218 207 207 216 217 209 205 207 206 204 206 209 215 223 228 223 215 209 206 203 200 197 197 199 202 207 212 212 206 199 195 194 195 195 199 211
191 189 191 196 200 202 202 204 210 210 215 226 228 225 227 235 237 240 243 243 241 243 244 242 242 245 247 247 246 230 209 210 221 226 223 222 227 234 243 252 255 256 257 256 255 258 261 262 261 248 228 212 210 214 212 206 207 209 205 203 206 210 218 227 227 217 209 207 206 205 201 198 200 204 210 215 216 211 204 196 192 191 192 193 200 213
197 200 200 197 201 210 210 205 207 207 205 216 225 227 229 234 238 241 243 244 243 243 245 245 245 248 254 255 249 231 215 215 223 227 227 230 235 241 248 253 255 255 257 258 260 261 259 257 260 255 237 215 203 202 202 203 208 207 203 204 209 212 219 225 220 210 207 207 207 205 202 202 206 211 215 218 215 208 200 194 191 190 191 196 206 216
206 208 209 206 207 215 219 220 227 234 234 228 228 232 233 238 245 249 250 251 249 247 246 246 245 246 249 250 244 230 218 218 224 225 225 230 236 240 244 247 248 250 251 252 253 253 252 251 253 250 236 211 196 199 206 206 205 205 205 207 211 215 220 220 214 211 210 209 207 206 207 209 213 216 216 213 210 205 198 195 194 193 194 201 210 216
212 214 218 218 219 225 231 234 237 242 242 239 242 246 245 245 247 249 249 249 249 250 248 245 242 240 237 236 234 230 223 220 221 221 222 225 229 234 238 241 245 247 248 249 249 247 247 248 248 244 229 205 195 203 209 206 205 208 209 207 210 217 219 216 214 215 214 212 210 211 213 215 218 217 213 206 202 200 197 197 199 198 200 206 211 211
Height
3040 3041 3039 3037 3041 3047 3052 3056 3059 3064 3068 3070 3073 3075 3077 3079 3081 3084 3088 3090 3093 3095 3096 3099 3101 3103 3105 3107 3109 3111 3112 3113 3114 3116 3117 3119 3120 3122 3123 3125 3126 3126 3127 3128 3129 3131 3132 3133 3136 3138 3139 3141 3141 3142 3143 3144 3145 3146 3148 3151 3153 3154 3156 3158 3159 3159 3159 3160 3161 3161 3161 3162 3163 3164 3164 3165 3166 3166 3166 3167 3167 3168 3168 3169 3169 3169
3038 3034 3032 3037 3043 3050 3054 3057 3060 3064 3066 3069 3071 3074 3076 3078 3080 3084 3086 3089 3092 3093 3095 3098 3099 3101 3104 3106 3107 3108 3110 3111 3112 3114 3116 3117 3118 3120 3122 3123 3124 3124 3125 3126 3127 3128 3130 3132 3134 3136 3138 3139 3141 3141 3142 3142 3144 3145 3147 3149 3151 3152 3154 3156 3157 3157 3158 3159 3159 3159 3160 3160 3161 3162 3163 3164 3164 3165 3166 3166 3167 3167 3168 3168 3168 3168
3031 3028 3032 3040 3045 3050 3054 3057 3060 3063 3065 3067 3069 3072 3074 3076 3080 3083 3085 3088 3091 3092 3093 3096 3098 3099 3102 3103 3104 3107 3109 3110 3111 3112 3114 3115 3116 3118 3119 3121 3121 3122 3123 3124 3126 3127 3128 3131 3133 3135 3137 3139 3140 3141 3141 3141 3143 3145 3146 3147 3149 3150 3152 3154 3155 3155 3156 3157 3157 3157 3158 3159 3160 3161 3162 3163 3163 3164 3165 3166 3166 3167 3167 3168 3167 3167
3025 3026 3033 3041 3045 3049 3053 3055 3059 3061 3063 3064 3066 3069 3071 3075 3078 3080 3082 3086 3089 3091 3093 3095 3096 3097 3099 3101 3103 3106 3108 3109 3110 3111 3113 3114 3115 3117 3118 3119 3120 3121 3122 3123 3124 3126 3127 3129 3131 3133 3135 3137 3138 3139 3140 3141 3142 3144 3145 3145 3147 3149 3150 3152 3153 3154 3154 3155 3155 3156 3157 3157 3158 3159 3161 3162 3163 3163 3164 3165 3166 3166 3167 3167 3166 3166
3025 3028 3034 3040 3044 3048 3050 3053 3056 3058 3059 3061 3064 3066 3069 3073 3076 3079 3083 3086 3088 3090 3091 3092 3093 3095 3096 3098 3101 3103 3105 3107 3108 3110 3112 3113 3114 3115 3116 3117 3119 3120 3121 3122 3122 3124 3125 3127 3129 3131 3133 3135 3136 3137 3139 3140 3142 3143 3143 3144 3146 3147 3148 3150 3151 3152 3152 3153 3154 3154 3155 3156 3157 3158 3160 3162 3162 3163 3164 3164 3165 3166 3166 3166 3166 3166
3026 3030 3035 3039 3042 3045 3048 3050 3052 3055 3058 3060 3061 3064 3069 3073 3076 3080 3083 3086 3086 3086 3087 3088 3091 3094 3094 3095 3098 3100 3103 3105 3107 3109 3110 3111 3112 3113 3114 3115 3117 3118 3119 3120 3121 3122 3124 3126 3128 3129 3131 3133 3134 3136 3138 3139 3140 3141 3142 3143 3144 3146 3147 3148 3149 3150 3150 3151 3152 3153 3155 3155 3156 3158 3159 3161 3162 3163 3163 3164 3165 3166 3166 3166 3166 3165
3026 3030 3034 3037 3040 3043 3046 3047 3050 3054 3057 3057 3059 3064 3069 3072 3075 3077 3081 3083 3083 3083 3084 3085 3087 3091 3093 3094 3096 3099 3101 3103 3104 3106 3107 3109 3110 3111 3112 3114 3115 3116 3117 3118 3119 3121 3122 3124 3126 3128 3129 3131 3133 3135 3136 3138 3139 3140 3141 3142 3143 3144 3146 3146 3147 3148 3149 3150 3151 3152 3154 3155 3156 3158 3159 3160 3161 3162 3163 3164 3164 3165 3165 3165 3165 3164
3023 3028 3031 3035 3038 3040 3041 3043 3047 3052 3054 3055 3060 3066 3069 3071 3073 3075 3079 3081 3081 3081 3082 3082 3082 3086 3089 3091 3094 3097 3098 3100 3101 3103 3105 3106 3108 3109 3110 3112 3113 3114 3115 3116 3117 3119 3121 3123 3125 3127 3128 3130 3131 3133 3135 3137 3138 3139 3140 3141 3142 3143 3144 3145 3146 3146 3148 3149 3150 3151 3153 3154 3155 3157 3159 3160 3160 3161 3162 3163 3163 3164 3164 3164 3163 3163
3022 3026 3028 3032 3035 3036 3037 3041 3047 3051 3053 3056 3062 3066 3068 3071 3072 3074 3078 3079 3080 3080 3079 3078 3079 3082 3085 3087 3091 3094 3095 3096 3098 3100 3102 3104 3105 3107 3108 3110 3111 3112 3114 3115 3116 3117 3119 3122 3124 3126 3127 3129 3130 3132 3134 3135 3137 3138 3139 3140 3140 3141 3142 3143 3144 3145 3146 3147 3148 3150 3152 3153 3155 3157 3159 3160 3161 3161 3162 3162 3163 3163 3163 3163 3163 3163
3023 3024 3028 3031 3032 3033 3037 3043 3048 3051 3053 3058 3063 3065 3067 3070 3072 3074 3077 3077 3078 3078 3075 3074 3075 3079 3084 3086 3087 3090 3092 3093 3095 3097 3100 3102 3103 3104 3106 3107 3108 3110 3112 3113 3114 3116 3119 3121 3123 3125 3126 3127 3129 3130 3132 3134 3135 3136 3137 3138 3139 3140 3141 3142 3143 3144 3145 3146 3147 3149 3151 3153 3156 3157 3159 3160 3161 3161 3162 3162 3162 3162 3162 3162 3163 3162
3023 3026 3029 3030 3030 3034 3039 3044 3048 3051 3055 3059 3062 3063 3066 3069 3071 3073 3074 3075 3076 3073 3071 3072 3072 3074 3081 3084 3081 3083 3085 3087 3090 3093 3096 3098 3100 3102 3103 3105 3106 3107 3109 3111 3113 3115 3118 3120 3122 3124 3125 3126 3127 3129 3131 3132 3134 3135 3136 3137 3137 3139 3140 3141 3142 3143 3145 3146 3147 3149 3151 3153 3156 3157 3159 3160 3161 3161 3162 3162 3162 3162 3162 3162 3162 3162
3023 3025 3026 3027 3030 3035 3040 3043 3047 3051 3055 3058 3059 3061 3064 3067 3069 3071 3071 3072 3071 3068 3067 3069 3071 3072 3075 3077 3077 3079 3082 3085 3087 3089 3091 3093 3096 3098 3100 3102 3103 3105 3107 3109 3111 3113 3116 3118 3120 3121 3123 3124 3126 3129 3130 3131 3132 3133 3134 3135 3136 3138 3139 3140 3141 3143 3144 3145 3147 3149 3151 3153 3155 3157 3159 3160 3161 3161 3161 3162 3162 3162 3162 3162 3162 3162
3019 3021 3023 3027 3031 3034 3037 3041 3045 3049 3052 3054 3056 3058 3061 3064 3067 3068 3068 3067 3066 3065 3066 3067 3069 3070 3069 3070 3073 3077 3080 3083 3084 3086 3087 3089 3092 3094 3096 3099 3101 3103 3105 3107 3109 3111 3114 3116 3118 3119 3121 3123 3125 3127 3129 3130 3131 3132 3133 3134 3135 3136 3138 3139 3140 3142 3144 3145 3147 3149 3151 3153 3155 3157 3158 3159 3160 3160 3161 3161 3161 3161 3161 3161 3162 3162
3017 3020 3023 3026 3028 3030 3033 3035 3039 3042 3044 3048 3051 3052 3056 3059 3063 3065 3065 3064 3063 3063 3064 3065 3067 3067 3066 3068 3071 3074 3077 3079 3081 3083 3086 3088 3090 3092 3094 3097 3099 3102 3104 3106 3108 3110 3112 3114 3116 3118 3120 3123 3124 3126 3128 3129 3130 3131 3132 3133 3134 3135 3137 3138 3139 3141 3143 3145 3147 3149 3150 3152 3154 3156 3158 3158 3159 3160 3160 3160 3160 3160 3161 3161 3161 3161
3014 3016 3018 3020 3023 3025 3029 3031 3034 3038 3041 3044 3048 3051 3053 3054 3058 3062 3062 3061 3061 3061 3061 3063 3063 3062 3063 3067 3070 3073 3075 3076 3079 3081 3085 3088 3090 3091 3093 3096 3098 3100 3102 3104 3106 3109 3111 3113 3115 3117 3120 3122 3124 3125 3127 3128 3129 3130 3131 3133 3134 3135 3136 3137 3139 3140 3143 3145 3147 3148 3150 3152 3154 3155 3156 3157 3158 3158 3159 3159 3159 3160 3160 3161 3161 3160
3013 3013 3014 3018 3022 3023 3027 3031 3035 3039 3041 3044 3048 3051 3050 3052 3056 3058 3058 3057 3059 3059 3059 3059 3059 3058 3061 3065 3067 3070 3072 3074 3077 3080 3084 3087 3090 3091 3093 3095 3096 3098 3100 3103 3105 3107 3110 3112 3114 3116 3118 3121 3123 3124 3126 3127 3128 3130 3131 3132 3133 3134 3135 3136 3138 3140 3142 3144 3146 3148 3149 3151 3153 3154 3155 3156 3156 3157 3158 3158 3159 3159 3160 3160 3159 3159
3012 3013 3015 3019 3022 3023 3026 3030 3034 3036 3038 3041 3045 3044 3047 3053 3057 3056 3055 3055 3056 3058 3056 3055 3056 3057 3059 3062 3064 3066 3069 3072 3076 3079 3083 3086 3088 3090 3091 3093 3095 3097 3099 3102 3104 3106 3109 3111 3113 3115 3117 3120 3122 3123 3125 3126 3127 3129 3131 3132 3132 3133 3134 3136 3138 3140 3142 3144 3146 3147 3148 3150 3151 3153 3153 3154 3155 3155 3156 3157 3158 3158 3158 3158 3158 3158
3011 3013 3014 3017 3020 3022 3025 3030 3033 3035 3037 3039 3040 3042 3048 3054 3054 3053 3054 3054 3055 3057 3055 3053 3054 3055 3057 3060 3062 3064 3067 3071 3075 3078 3081 3084 3086 3088 3090 3092 3093 3096 3099 3101 3103 3105 3107 3110 3112 3114 3116 3119 3121 3122 3124 3125 3127 3128 3130 3131 3132 3133 3134 3135 3137 3139 3141 3143 3145 3146 3147 3149 3150 3151 3152 3152 3153 3154 3155 3156 3156 3157 3157 3157 3157 3157
3011 3012 3014 3016 3018 3021 3025 3029 3032 3033 3036 3037 3039 3043 3047 3049 3049 3051 3053 3052 3054 3056 3055 3053 3054 3054 3055 3058 3059 3061 3064 3069 3073 3077 3079 3081 3084 3086 3088 3089 3092 3095 3098 3099 3101 3103 3106 3108 3111 3113 3115 3117 3119 3121 3123 3125 3126 3127 3128 3129 3131 3132 3133 3135 3136 3139 3140 3142 3144 3145 3146 3147 3148 3149 3150 3151 3152 3153 3154 3154 3155 3155 3156 3156 3156 3156
3010 3011 3012 3015 3017 3020 3024 3025 3026 3029 3032 3036 3040 3041 3042 3045 3047 3049 3050 3049 3050 3054 3055 3054 3054 3054 3055 3056 3058 3060 3063 3067 3072 3075 3076 3078 3081 3083 3085 3087 3089 3093 3096 3097 3099 3102 3104 3107 3110 3112 3114 3116 3118 3120 3122 3124 3125 3126 3127 3128 3129 3131 3132 3134 3136 3138 3139 3141 3143 3144 3145 3146 3147 3148 3149 3150 3151 3152 3152 3153 3154 3154 3154 3155 3155 3155
3008 3009 3010 3013 3016 3019 3019 3020 3022 3026 3029 3033 3035 3036 3038 3042 3045 3046 3048 3048 3048 3050 3053 3054 3054 3053 3054 3056 3058 3060 3063 3067 3071 3073 3075 3077 3079 3082 3083 3085 3087 3091 3095 3097 3098 3101 3103 3106 3109 3111 3112 3114 3117 3119 3121 3123 3124 3125 3126 3127 3129 3130 3132 3133 3135 3137 3139 3141 3142 3143 3145 3146 3147 3148 3148 3149 3150 3151 3151 3152 3153 3153 3153 3154 3154 3154
3007 3007 3008 3011 3013 3014 3016 3019 3023 3027 3029 3031 3033 3034 3037 3041 3043 3045 3047 3046 3046 3048 3049 3051 3052 3052 3053 3055 3057 3060 3063 3067 3069 3071 3072 3074 3077 3079 3081 3083 3087 3091 3094 3096 3097 3100 3103 3105 3107 3108 3110 3112 3115 3117 3120 3121 3122 3124 3125 3126 3128 3129 3131 3133 3135 3137 3139 3140 3142 3143 3144 3145 3146 3147 3148 3148 3149 3149 3150 3151 3151 3151 3152 3152 3152 3152
3006 3007 3007 3009 3011 3014 3017 3021 3024 3027 3029 3031 3033 3035 3037 3040 3042 3044 3045 3045 3046 3047 3048 3049 3051 3050 3051 3053 3055 3059 3063 3065 3067 3069 3071 3072 3074 3077 3079 3082 3087 3091 3093 3094 3096 3099 3102 3104 3105 3106 3108 3111 3113 3116 3118 3119 3121 3122 3123 3125 3127 3128 3130 3132 3134 3136 3138 3139 3141 3142 3143 3144 3145 3146 3146 3147 3147 3148 3148 3149 3149 3150 3150 3150 3150 3150
3005 3005 3005 3007 3011 3015 3018 3022 3024 3027 3029 3030 3031 3034 3036 3039 3041 3043 3045 3044 3045 3046 3047 3049 3050 3049 3050 3052 3055 3058 3062 3064 3067 3069 3071 3072 3074 3077 3079 3082 3086 3089 3091 3093 3095 3098 3100 3102 3103 3104 3106 3109 3112 3114 3116 3118 3119 3121 3122 3124 3125 3127 3129 3131 3133 3135 3136 3138 3139 3140 3141 3142 3143 3144 3144 3144 3145 3146 3146 3147 3147 3148 3148 3148 3148 3148
3003 3003 3003 3006 3011 3014 3017 3019 3021 3022 3024 3026 3029 3032 3035 3038 3041 3043 3044 3044 3045 3046 3047 3048 3049 3048 3049 3051 3054 3057 3061 3064 3066 3069 3071 3072 3073 3076 3079 3082 3085 3087 3089 3091 3093 3095 3098 3099 3101 3103 3105 3107 3110 3112 3114 3116 3118 3119 3121 3123 3124 3127 3128 3130 3132 3133 3134 3136 3137 3138 3139 3140 3141 3141 3141 3142 3143 3143 3144 3145 3145 3146 3146 3146 3146 3146
3002 3002 3002 3004 3007 3010 3013 3013 3014 3016 3020 3024 3027 3031 3034 3036 3039 3041 3042 3043 3044 3046 3046 3047 3047 3047 3048 3050 3053 3056 3059 3062 3066 3069 3071 3073 3074 3076 3078 3081 3083 3086 3088 3089 3091 3093 3095 3097 3100 3102 3104 3106 3108 3111 3113 3114 3116 3118 3120 3122 3124 3126 3127 3129 3130 3132 3133 3134 3135 3136 3137 3138 3138 3139 3140 3140 3141 3142 3142 3143 3143 3143 3144 3144 3144 3144
3002 3002 3004 3005 3006 3008 3011 3013 3014 3016 3021 3024 3028 3031 3032 3035 3037 3039 3041 3042 3044 3045 3046 3045 3045 3046 3047 3048 3051 3055 3058 3062 3065 3069 3072 3076 3078 3078 3079 3080 3082 3084 3086 3088 3089 3091 3093 3095 3098 3101 3103 3105 3107 3109 3111 3113 3115 3118 3119 3121 3122 3124 3125 3127 3129 3130 3131 3132 3133 3134 3135 3136 3137 3137 3138 3138 3139 3139 3140 3141 3141 3141 3141 3141 3142 3142
3002 3003 3005 3007 3008 3011 3014 3016 3018 3020 3023 3026 3029 3031 3032 3034 3036 3038 3039 3041 3043 3045 3045 3045 3045 3045 3046 3047 3050 3053 3058 3061 3064 3067 3072 3075 3076 3076 3078 3079 3081 3082 3084 3085 3087 3089 3091 3093 3096 3099 3101 3103 3105 3107 3109 3112 3115 3117 3118 3119 3121 3122 3124 3125 3127 3129 3130 3131 3131 3132 3133 3134 3135 3135 3136 3136 3136 3137 3138 3138 3139 3139 3139 3139 3140 3140
3003 3004 3005 3007 3009 3012 3014 3017 3019 3021 3024 3026 3029 3031 3032 3034 3036 3037 3039 3041 3043 3044 3045 3045 3045 3045 3046 3047 3050 3053 3056 3059 3062 3066 3070 3072 3073 3074 3076 3077 3079 3080 3082 3083 3085 3088 3089 3091 3094 3097 3100 3102 3103 3105 3108 3111 3114 3114 3115 3117 3119 3120 3122 3124 3126 3127 3129 3129 3130 3131 3132 3132 3133 3133 3134 3134 3134 3135 3135 3136 3137 3137 3137 3138 3138 3138
3003 3004 3005 3007 3009 3011 3013 3016 3018 3021 3023 3026 3028 3030 3032 3033 3035 3037 3039 3041 3042 3044 3045 3045 3045 3046 3047 3048 3051 3053 3056 3058 3062 3066 3068 3070 3071 3072 3074 3076 3077 3078 3080 3082 3084 3086 3088 3091 3093 3096 3098 3100 3102 3105 3108 3110 3111 3112 3113 3115 3117 3119 3120 3122 3124 3126 3127 3128 3129 3130 3130 3131 3131 3132 3132 3132 3133 3133 3134 3135 3135 3135 3135 3136 3137 3137
3004 3005 3006 3007 3009 3011 3013 3014 3017 3020 3023 3025 3027 3029 3031 3033 3035 3037 3038 3040 3042 3043 3044 3044 3045 3047 3048 3050 3052 3055 3058 3061 3064 3066 3068 3069 3070 3071 3073 3074 3075 3077 3078 3080 3083 3084 3087 3090 3093 3095 3097 3099 3101 3104 3106 3107 3108 3109 3111 3113 3115 3117 3119 3121 3123 3124 3125 3126 3127 3128 3129 3129 3130 3130 3130 3131 3131 3132 3132 3133 3133 3133 3134 3135 3135 3136
3005 3005 3006 3008 3010 3013 3014 3015 3017 3020 3022 3025 3026 3028 3030 3032 3034 3036 3037 3039 3041 3042 3043 3044 3045 3046 3048 3051 3053 3056 3059 3062 3064 3066 3067 3068 3069 3070 3072 3073 3074 3075 3077 3079 3081 3083 3086 3088 3090 3093 3095 3098 3100 3102 3104 3105 3106 3108 3110 3112 3114 3115 3117 3119 3121 3122 3123 3124 3125 3126 3126 3127 3128 3128 3128 3129 3129 3130 3131 3131 3132 3132 3133 3133 3134 3134
3006 3006 3007 3009 3012 3014 3016 3017 3018 3020 3023 3025 3025 3026 3028 3031 3033 3035 3037 3038 3040 3042 3043 3044 3045 3047 3048 3050 3052 3055 3058 3060 3062 3063 3065 3066 3067 3069 3071 3072 3073 3075 3076 3078 3080 3083 3085 3087 3088 3091 3094 3097 3098 3100 3102 3103 3104 3106 3109 3110 3112 3113 3115 3117 3119 3120 3120 3121 3122 3123 3124 3125 3126 3126 3126 3127 3127 3128 3129 3130 3130 3131 3131 3132 3133 3133
3007 3008 3009 3010 3012 3015 3017 3017 3018 3021 3024 3024 3024 3026 3027 3029 3032 3035 3037 3038 3040 3041 3043 3045 3047 3047 3048 3049 3051 3053 3055 3058 3060 3061 3063 3065 3066 3068 3070 3071 3073 3074 3075 3077 3079 3082 3084 3086 3088 3090 3092 3093 3095 3098 3100 3101 3102 3104 3106 3108 3110 3111 3113 3115 3116 3117 3118 3119 3120 3121 3122 3123 3123 3124 3124 3125 3125 3126 3127 3129 3129 3129 3130 3131 3131 3132
3008 3009 3010 3011 3013 3015 3016 3016 3018 3023 3024 3024 3025 3026 3027 3029 3031 3034 3037 3039 3040 3041 3042 3044 3046 3047 3048 3049 3051 3052 3054 3056 3058 3061 3062 3064 3066 3068 3069 3071 3072 3073 3075 3076 3078 3080 3083 3085 3087 3088 3089 3090 3092 3095 3098 3098 3099 3102 3104 3105 3107 3109 3111 3112 3113 3114 3115 3116 3117 3118 3119 3120 3121 3122 3122 3123 3124 3125 3126 3127 3128 3128 3128 3129 3129 3130
3009 3010 3011 3012 3014 3015 3016 3016 3019 3022 3024 3024 3025 3027 3028 3029 3031 3034 3037 3038 3039 3040 3042 3043 3045 3047 3048 3049 3051 3052 3054 3055 3057 3060 3061 3063 3065 3067 3068 3070 3071 3072 3074 3076 3077 3079 3081 3083 3084 3086 3087 3089 3091 3093 3095 3096 3097 3098 3100 3103 3104 3106 3108 3109 3110 3111 3113 3113 3114 3115 3117 3118 3119 3120 3120 3121 3122 3123 3125 3126 3126 3126 3127 3128 3128 3129
3010 3011 3012 3013 3014 3015 3016 3017 3019 3022 3023 3025 3027 3027 3028 3029 3030 3033 3035 3035 3036 3038 3040 3042 3044 3045 3047 3049 3050 3052 3053 3054 3056 3057 3059 3061 3063 3065 3067 3068 3070 3071 3073 3074 3076 3077 3078 3080 3082 3084 3086 3086 3088 3090 3092 3093 3094 3095 3097 3100 3102 3104 3106 3106 3106 3107 3108 3109 3111 3112 3114 3116 3117 3118 3119 3120 3121 3122 3123 3124 3124 3125 3125 3126 3127 3128
3011 3012 3012 3014 3015 3016 3016 3017 3019 3022 3024 3026 3027 3028 3028 3029 3030 3031 3033 3033 3035 3036 3038 3040 3042 3043 3045 3047 3049 3050 3051 3052 3053 3055 3057 3059 3061 3063 3064 3066 3067 3069 3071 3072 3073 3074 3076 3077 3080 3082 3083 3083 3084 3086 3088 3090 3091 3092 3095 3098 3100 3101 3102 3102 3103 3104 3106 3107 3109 3111 3112 3114 3115 3116 3117 3119 3120 3121 3122 3123 3123 3123 3124 3125 3126 3127
3012 3012 3013 3014 3015 3016 3017 3018 3020 3022 3023 3025 3027 3027 3027 3028 3030 3031 3032 3033 3034 3034 3036 3039 3040 3042 3043 3045 3047 3049 3050 3051 3053 3055 3057 3058 3059 3061 3062 3064 3066 3068 3069 3070 3071 3072 3073 3075 3076 3078 3079 3080 3081 3083 3085 3087 3089 3091 3093 3096 3097 3099 3100 3100 3101 3103 3104 3105 3105 3108 3110 3112 3113 3115 3116 3117 3119 3119 3120 3121 3122 3122 3123 3124 3125 3126
3012 3013 3014 3014 3016 3017 3018 3019 3021 3022 3023 3025 3026 3026 3027 3028 3029 3031 3032 3033 3033 3034 3035 3037 3038 3040 3042 3043 3044 3046 3048 3051 3054 3055 3057 3058 3059 3060 3061 3063 3065 3066 3068 3069 3070 3070 3071 3072 3073 3075 3076 3078 3079 3081 3082 3084 3087 3089 3091 3093 3095 3097 3099 3100 3101 3102 3103 3103 3103 3105 3107 3110 3112 3113 3115 3116 3117 3118 3119 3120 3121 3122 3123 3124 3124 3125
3013 3013 3014 3015 3017 3018 3019 3020 3022 3022 3023 3024 3025 3026 3027 3028 3030 3031 3032 3032 3033 3034 3034 3035 3037 3039 3041 3042 3043 3045 3048 3051 3053 3055 3056 3057 3058 3059 3060 3062 3063 3065 3066 3068 3068 3069 3070 3070 3072 3073 3074 3076 3077 3079 3080 3083 3085 3088 3090 3092 3094 3096 3097 3099 3099 3099 3101 3102 3103 3103 3105 3108 3110 3111 3113 3114 3115 3116 3117 3119 3120 3121 3122 3123 3123 3124
3014 3015 3016 3017 3018 3019 3020 3021 3023 3023 3024 3025 3026 3026 3028 3029 3030 3031 3031 3032 3033 3033 3034 3034 3036 3038 3040 3042 3044 3046 3048 3050 3051 3053 3054 3056 3057 3058 3058 3060 3061 3062 3064 3065 3066 3067 3068 3069 3070 3071 3072 3074 3075 3077 3079 3081 3084 3086 3089 3090 3093 3094 3096 3097 3098 3098 3099 3101 3102 3102 3103 3105 3108 3109 3111 3112 3114 3115 3116 3117 3118 3119 3120 3121 3122 3123
3016 3017 3017 3018 3019 3020 3021 3022 3023 3024 3024 3025 3026 3027 3028 3029 3030 3030 3031 3032 3032 3033 3033 3034 3035 3037 3039 3041 3043 3045 3047 3048 3050 3051 3053 3054 3056 3056 3057 3058 3059 3061 3062 3063 3064 3065 3066 3067 3068 3068 3070 3072 3073 3075 3078 3080 3082 3085 3087 3089 3091 3093 3094 3095 3096 3096 3097 3099 3100 3101 3102 3103 3106 3108 3109 3111 3112 3113 3115 3116 3117 3118 3119 3120 3121 3122
3017 3018 3018 3019 3019 3020 3021 3022 3023 3024 3025 3025 3026 3027 3028 3029 3029 3030 3031 3031 3031 3032 3033 3033 3034 3035 3038 3040 3042 3043 3045 3047 3048 3049 3051 3053 3054 3055 3056 3057 3058 3059 3060 3061 3063 3064 3064 3065 3065 3066 3068 3070 3072 3074 3076 3078 3081 3083 3085 3087 3089 3090 3092 3093 3094 3094 3095 3097 3099 3099 3100 3102 3104 3106 3107 3109 3111 3112 3113 3114 3116 3117 3118 3119 3120 3121
3017 3017 3018 3018 3019 3020 3021 3022 3023 3024 3025 3025 3026 3027 3027 3028 3029 3029 3029 3030 3030 3031 3031 3032 3033 3034 3036 3038 3039 3041 3043 3045 3046 3047 3049 3051 3052 3053 3054 3055 3056 3057 3058 3059 3061 3062 3062 3063 3064 3064 3066 3068 3070 3072 3074 3076 3079 3081 3083 3085 3087 3088 3090 3091 3092 3093 3094 3095 3097 3098 3099 3101 3102 3104 3106 3108 3109 3111 3112 3113 3114 3116 3117 3118 3119 3120
3015 3016 3017 3018 3019 3020 3021 3022 3023 3024 3025 3025 3025 3026 3027 3027 3028 3028 3029 3029 3029 3029 3030 3031 3032 3033 3034 3035 3037 3039 3041 3043 3044 3045 3047 3049 3051 3052 3053 3054 3055 3056 3057 3058 3059 3060 3060 3061 3062 3062 3064 3066 3068 3070 3072 3074 3077 3079 3081 3083 3085 3086 3088 3089 3090 3091 3092 3094 3096 3097 3098 3099 3101 3102 3104 3106 3108 3109 3110 3112 3113 3115 3116 3117 3118 3119
3015 3016 3017 3018 3019 3020 3021 3022 3023 3024 3024 3025 3025 3026 3026 3027 3027 3028 3028 3028 3028 3028 3028 3029 3029 3030 3032 3033 3035 3037 3039 3041 3043 3044 3045 3047 3048 3050 3051 3052 3053 3054 3055 3056 3057 3058 3059 3059 3060 3061 3061 3063 3065 3068 3070 3072 3074 3076 3078 3080 3082 3084 3085 3087 3088 3089 3091 3092 3094 3095 3096 3098 3099 3101 3103 3105 3106 3107 3108 3110 3112 3113 3115 3116 3117 3118
3015 3016 3017 3017 3018 3019 3020 3021 3022 3023 3024 3024 3025 3026 3026 3026 3027 3027 3027 3027 3026 3026 3026 3027 3027 3028 3029 3031 3033 3035 3037 3039 3041 3042 3043 3045 3046 3047 3048 3050 3051 3052 3053 3054 3055 3056 3057 3058 3059 3059 3059 3060 3062 3066 3068 3070 3072 3074 3076 3078 3080 3082 3083 3085 3086 3088 3089 3091 3092 3094 3095 3096 3098 3100 3101 3103 3104 3105 3107 3109 3110 3112 3113 3115 3116 3117
3014 3015 3016 3017 3018 3019 3020 3021 3022 3022 3023 3024 3024 3025 3025 3026 3026 3026 3026 3026 3025 3025 3025 3025 3026 3027 3028 3029 3031 3033 3035 3037 3039 3040 3042 3043 3044 3045 3046 3047 3049 3050 3051 3052 3053 3054 3055 3056 3057 3057 3057 3058 3061 3063 3066 3068 3070 3072 3074 3076 3078 3080 3081 3083 3084 3086 3088 3089 3091 3092 3093 3094 3096 3098 3099 3101 3103 3104 3106 3108 3109 3111 3112 3113 3115 3116
3014 3015 3015 3016 3017 3018 3019 3020 3021 3021 3022 3023 3023 3024 3024 3025 3025 3025 3025 3025 3024 3024 3025 3025 3025 3026 3027 3028 3029 3031 3033 3035 3037 3038 3040 3041 3042 3043 3044 3045 3047 3048 3049 3050 3051 3052 3053 3054 3055 3056 3056 3057 3059 3061 3064 3066 3068 3070 3072 3074 3076 3078 3079 3081 3082 3084 3085 3087 3089 3090 3091 3093 3094 3096 3098 3100 3101 3103 3105 3106 3108 3109 3110 3112 3113 3114
3013 3014 3015 3015 3016 3018 3019 3019 3020 3020 3021 3022 3022 3023 3023 3024 3024 3024 3024 3024 3023 3023 3024 3025 3025 3025 3026 3027 3028 3029 3031 3033 3035 3037 3038 3039 3040 3041 3042 3043 3045 3046 3046 3047 3048 3049 3051 3052 3053 3054 3055 3056 3057 3059 3062 3064 3067 3068 3070 3072 3074 3076 3078 3079 3080 3082 3084 3086 3087 3088 3090 3091 3093 3095 3096 3098 3100 3102 3104 3105 3107 3108 3109 3111 3112 3113